Date,TemperatureHighF,TemperatureAvgF,TemperatureLowF,DewpointHighF,DewpointAvgF,DewpointLowF,HumidityHigh,HumidityAvg,HumidityLow,PressureMaxIn,PressureMinIn,WindSpeedMaxMPH,WindSpeedAvgMPH,GustSpeedMaxMPH,PrecipitationSumIn
2013-5-1,67,55,42,43,34,24,72,47,22,30.45,30.29,7,2,16,0.00
2013-5-2,73,58,44,45,40,34,89,54,25,30.44,30.27,5,1,9,0.00
2013-5-3,64,56,48,43,38,29,78,52,29,30.42,30.31,8,2,16,0.00
2013-5-4,68,55,43,46,41,38,92,64,36,30.34,30.19,4,1,11,0.00
2013-5-5,61,51,41,43,39,34,89,65,39,30.26,30.17,5,1,11,0.00
2013-5-6,68,54,41,51,45,37,91,72,51,30.23,30.11,4,1,12,0.00
2013-5-7,72,61,47,56,50,43,92,71,47,30.14,30.06,5,1,11,0.00
2013-5-8,62,60,55,60,57,51,94,91,83,30.09,29.96,5,1,15,0.71
2013-5-9,64,58,52,59,55,49,95,90,76,29.99,29.87,2,0,8,0.48
2013-5-10,77,64,53,60,52,-100,95,70,40,29.97,29.88,2,0,8,0.39
2013-5-11,67,62,60,63,59,54,94,89,75,29.88,29.69,2,0,13,0.10
2013-5-12,67,59,50,59,44,-100,94,65,28,29.88,29.63,3,0,12,0.19
2013-5-13,54,48,41,34,30,23,75,51,33,30.05,29.88,2,0,8,0.06
2013-5-14,58,48,36,35,29,22,83,52,26,30.08,29.97,4,0,11,0.00
2013-5-15,64,53,39,54,44,31,86,72,53,30.03,29.65,4,1,12,0.01
2013-5-16,79,61,52,55,29,-100,90,57,25,29.80,29.68,0,0,6,0.01
2013-5-17,68,61,54,44,36,-100,62,46,33,30.15,29.80,0,0,9,0.00
2013-5-18,68,57,48,53,48,42,90,74,41,30.27,30.18,2,0,8,0.05
2013-5-19,58,56,54,56,54,50,95,92,87,30.29,30.16,2,0,8,0.17
2013-5-20,77,66,56,66,61,55,96,85,65,30.16,29.94,3,0,9,0.12
2013-5-21,84,74,63,69,65,60,93,76,55,29.96,29.81,4,0,10,0.01
2013-5-22,77,68,58,69,63,55,92,83,71,29.92,29.82,4,0,10,0.00
2013-5-23,74,68,65,71,65,63,95,92,82,29.88,29.75,2,0,11,1.12
2013-5-24,65,56,44,64,54,42,96,95,93,29.90,29.66,2,0,9,0.50
2013-5-25,50,46,43,47,43,41,95,90,78,29.94,29.85,4,1,13,0.35
2013-5-26,62,53,43,44,40,34,88,63,42,30.15,29.88,4,1,11,0.68
2013-5-27,72,59,44,44,39,35,80,51,28,30.20,30.08,2,0,8,0.00
2013-5-28,66,57,49,55,49,43,93,77,43,30.18,30.10,1,0,6,0.25
2013-5-29,79,66,57,69,61,55,96,85,67,30.11,29.97,3,0,8,0.03
2013-5-30,88,78,68,70,64,61,89,65,42,30.11,30.03,0,0,3,0.01
2013-5-31,88,78,67,69,64,60,87,63,39,30.11,29.97,1,0,8,0.00